This demonstration page uses our WeatherBlox Daily Observations layout. Learn more.

39.92423, -83.80882

Hourly Observations for May 10, 2017

Temp ( °F °C ) Dew Point ( °F °C ) Humidity (%) Winds ( mph kmh ) Pressure ( in mb ) Visibility ( mi km ) Precip ( " mm )
12:56 am 00:56 Cloudy 53 11.7 50 10 89 89 ESE 6 9 29.97 1015 10 16.0934 0 0.0254
1:56 am 01:56 Cloudy 52 11.1 49 9.4 89 89 SE 3 6 29.97 1015 10 16.0934 0 0
2:56 am 02:56 Cloudy 52 11.1 50 10 93 93 E 5 7 29.96 1015 10 16.0934 0 0
3:56 am 03:56 Cloudy 52 11.1 50 10 93 93 E 6 9 29.96 1015 10 16.0934 0 0
4:56 am 04:56 Cloudy 52 11.1 50 10 93 93 ESE 7 11 29.96 1015 10 16.0934 0 0
5:16 am 05:16 Cloudy 54 12 50 10 88 88 SE 6 9 29.94 1014 10 16.0934 0 0
5:56 am 05:56 Cloudy 52 11.1 50 10 93 93 Calm 29.96 1015 10 16.0934 0 0
6:24 am 06:24 Mostly Cloudy 52 11 48 9 88 88 E 6 9 29.97 1015 9 14.48406 0 0
6:56 am 06:56 Cloudy 51 10.6 49 9.4 92 92 E 5 7 29.98 1015 8 12.87472 0 0
7:56 am 07:56 Cloudy 54 12.2 51 10.6 90 90 E 9 15 30 1016 10 16.0934 0 0
8:03 am 08:03 Cloudy 54 12 52 11 94 94 E 9 15 30 1016 10 16.0934 0 0
8:27 am 08:27 Cloudy 55 13 52 11 88 88 E 12 19 30 1016 10 16.0934 0 0
8:56 am 08:56 Mostly Cloudy 56 13.3 51 10.6 84 84 E 12 19 29.99 1016 10 16.0934 0 0
9:05 am 09:05 Cloudy 57 14 52 11 82 82 E 13 20 29.97 1015 10 16.0934 0 0
10:44 am 10:44 Mostly Cloudy 63 17 54 12 73 73 ESE 7 11 30 1016 10 16.0934 0 0
10:56 am 10:56 Cloudy 63 17.2 54 12.2 73 73 VRB 6 9 30 1016 10 16.0934 0 0
11:29 am 11:29 Cloudy 63 17 55 13 77 77 SE 7 11 30 1016 10 16.0934 0 0
11:56 am 11:56 Partly Cloudy 65 18.3 56 13.3 73 73 SE 8 13 29.99 1016 10 16.0934 0 0
12:56 pm 12:56 Mostly Sunny 68 20 57 13.9 68 68 E 3 6 29.99 1016 9 14.48406 0 0
1:49 pm 13:49 Mostly Cloudy 70 21 59 15 69 69 E 7 11 29.94 1014 10 16.0934 0 0
1:56 pm 13:56 Cloudy 70 21.1 59 15 68 68 E 6 9 29.97 1015 10 16.0934 0 0
2:12 pm 14:12 Partly Cloudy 70 21 59 15 69 69 VRB 7 11 29.94 1014 10 16.0934 0 0
2:56 pm 14:56 Mostly Cloudy 70 21.1 60 15.6 71 71 E 5 7 29.97 1015 10 16.0934 0 0
3:18 pm 15:18 Cloudy 72 22 61 16 69 69 E 5 7 29.94 1014 10 16.0934 0 0
3:41 pm 15:41 Cloudy 73 23 61 16 65 65 SE 6 9 29.94 1014 10 16.0934 0 0
3:56 pm 15:56 Partly Cloudy 73 22.8 61 16.1 66 66 SSE 6 9 29.95 1014 10 16.0934 0 0
4:29 pm 16:29 Mostly Cloudy 73 23 63 17 69 69 SE 5 7 29.91 1013 10 16.0934 0 0
4:56 pm 16:56 Cloudy 72 22.2 62 16.7 71 71 Calm 29.93 1013 8 12.87472 0 0
5:15 pm 17:15 Cloudy 72 22 63 17 73 73 S 6 9 29.91 1013 10 16.0934 0 0
5:56 pm 17:56 Cloudy 72 22.2 62 16.7 71 71 S 5 7 29.92 1013 10 16.0934 0 0
6:56 pm 18:56 Mostly Sunny 72 22.2 63 17.2 73 73 Calm 29.91 1013 8 12.87472 0 0
7:56 pm 19:56 Mostly Cloudy 69 20.6 62 16.7 78 78 E 6 9 29.9 1013 10 16.0934 0 0
8:56 pm 20:56 Cloudy 68 20 62 16.7 81 81 E 6 9 29.9 1013 10 16.0934 0 0
9:56 pm 21:56 Mostly Clear 67 19.4 61 16.1 81 81 ESE 9 15 29.89 1012 10 16.0934 0 0
10:56 pm 22:56 Mostly Cloudy 65 18.3 60 15.6 84 84 E 7 11 29.88 1012 10 16.0934 0 0
11:56 pm 23:56 Cloudy 64 17.8 60 15.6 87 87 ESE 8 13 29.85 1011 10 16.0934 0 0

Powered by AerisWeather